Location: Lower Kingswood
(51.2667°N, 0.2167°W)
Time: 04:11:24
(UTC+00:00)

Cosmos 1833 Rocket - Pass Details

Date: 26 September 2023
Orbit: 830 x 841 km, 71.0° (Epoch: 29 November)

Event Time Altitude Azimuth Distance (km) Brightness Sun altitude
Exits shadow 03:00:49 30° 314° (NW) 1,469 3.8 -26.2°
Maximum altitude 03:00:58 30° 317° (NW) 1,468 3.8 -26.1°
Drops below altitude 10° 03:05:52 10° 18° (NNE) 2,453 5.8 -25.5°
Sets 03:08:38 0° 29° (NNE) 3,391 6.8 -25.2°
